2017-071G

Last updated on Sat Jan 06 2018 00:15:03 GMT+0000 (Coordinated Universal Time)

1 43043U 17071G 18005.51472808 .00002656 00000-0 80902-4 0 9991 2 43043 51.6401 113.3383 0005649 41.3836 318.7575 15.37767427 4531
UTC large
Height (km)
Speed (km/s)
/
Latitude / Longitude
Inclination (degrees)
Orbital Period (minutes)
Azimuth
Elevation
Range (km)
Doppler Factor

Next 0 passes for location: London (51.5072 / 0.1276)

Sorry there are no passes over London.